Location: Marcé
(47.5801°N, 0.3280°W)
Time: 19:46:25
(UTC+01:00)

Vanguard 1 - Pass Details

Date: 30 November 2021
Orbit: 652 x 3830 km, 34.2° (Epoch: 16 January)

Event Time Altitude Azimuth Distance (km) Brightness Sun altitude
Rises 00:05:53 0° 206° (SSW) 7,372 - -62.6°
Reaches altitude 10° 00:11:31 10° 197° (SSW) 6,637 - -62.9°
Maximum altitude 00:29:49 32° 144° (SE) 5,230 - -63.7°
Exits shadow 00:45:04 13° 95° (E) 5,998 13.9 -64.0°
Drops below altitude 10° 00:46:41 10° 92° (E) 6,185 14.0 -64.1°
Sets 00:51:33 0° 83° (E) 6,839 14.4 -64.1°
